Location: Unspecified
(0.0000°N, 0.0000°E)
Time: 20:24:31
(UTC+00:00)

deb OV3-4 - Pass Details

Date: 13 April 2026
Orbit: 581 x 4210 km, 40.6° (Epoch: 13 May)

Event Time Altitude Azimuth Distance (km) Brightness Sun altitude
Rises 19:56:17 0° 312° (NW) 6,152 ? -28.5°
Reaches altitude 10° 20:01:08 10° 312° (NW) 4,544 ? -29.7°
Maximum altitude 20:12:01 84° 225° (SW) 1,195 ? -32.4°
Enters shadow 20:12:12 83° 193° (SSW) 1,184 ? -32.4°
